Location: Marcé
(47.5801°N, 0.3280°W)
Time: 00:08:38
(UTC+01:00)

S-56A Canister/Altair - Pass Details

Date: 08 December 2021
Orbit: 633 x 2499 km, 38.9° (Epoch: 17 January)

Event Time Altitude Azimuth Distance (km) Brightness Sun altitude
Rises 23:22:56 0° 231° (SW) 5,825 12.1 -59.3°
Enters shadow 23:24:57 - 229° (SW) 5,270 11.8 -59.6°
Reaches altitude 10° 23:27:24 10° 225° (SW) 4,593 - -59.8°
Maximum altitude 23:38:08 39° 164° (SSE) 2,277 - -61.0°
Drops below altitude 10° 23:45:41 10° 99° (E) 3,228 - -61.8°
Sets 23:48:15 0° 91° (E) 3,968 - -62.0°
